LiveATC.Net - Listen to live air traffic control over the Internet!


ICAO: ENML  IATA: MOL   Airport: Molde Airport
City: Molde
Country: Norway   Continent: Europe
ENML METAR Weather: ENML 251820Z 30006KT CAVOK 13/07 Q1029
ENML Flight Activity (FlightAware)

ENML Gnd/Twr/App/Center
Feed Status: DOWN
Last heard on: 2020-04-17 21:29:05 (37 days 21 hours 13 minutes ago)
Archive Access: ENML Gnd/Twr/App/Center
FacilityFrequency
Molde Info119.950

NOTICE

Unauthorized use prohibited. See LiveATC.net Terms of Service


Airport/ARTCC Code
Frequency Search
(e.g., 124.400, 128.75)
Site-wide search
 


Browse Feeds
Top 50 Feeds
Coverage Map
Bad Weather Areas

LiveATC FAQ
Offer LiveATC feed
Contact LiveATC.net
Press Inquiries

LiveATC on iPhone
LiveATC on Android

Windows Phone
Windows 8/10

LiveATC Mobile
(Mobile browser)

ATC Audio Archives
Interesting Recordings

LiveATC Forums


Home Page
About LiveATC.net
Make a Donation
Terms of Use
Privacy Policy

Canadian Air Freqs

AIRMETs/SIGMETs

FAA Airport Status
Nat'l Airspace Status
Arrival Demand Charts


Server Software By:
Icecast.org
Liquidsoap